This demonstration page uses our WeatherBlox Daily Observations layout. Learn more.

Left ArrowRight Arrow

53.62937, 11.41316

Hourly Observations for February 1, 2022

Temp ( °F °C ) Dew Point ( °F °C ) Humidity (%) Winds ( mph kmh ) Pressure ( in mb ) Visibility ( mi km ) Precip ( " mm )
12:20 am 00:20 Mostly Cloudy 34 1 32 0 93 93 WSW 5 7 29.89 1012 30 48 N/A
12:50 am 00:50 Mostly Cloudy 34 1 32 0 93 93 WSW 6 9 29.89 1012 30 48 N/A
1:20 am 01:20 Mostly Cloudy 34 1 32 0 93 93 WSW 6 9 29.89 1012 30 48 N/A
1:50 am 01:50 Mostly Cloudy 36 2 34 1 93 93 WSW 8 13 29.89 1012 4 7 N/A
2:20 am 02:20 Cloudy 36 2 34 1 93 93 W 9 15 29.89 1012 30 48 N/A
2:50 am 02:50 Mostly Cloudy 36 2 34 1 93 93 W 9 15 29.86 1011 30 48 N/A
3:20 am 03:20 Mostly Cloudy 36 2 34 1 93 93 W 8 13 29.86 1011 30 48 N/A
3:50 am 03:50 Partly Cloudy 36 2 34 1 93 93 W 8 13 29.86 1011 30 48 N/A
4:20 am 04:20 Mostly Clear 36 2 32 0 87 87 W 8 13 29.86 1011 30 48 N/A
4:50 am 04:50 Mostly Cloudy 36 2 32 0 87 87 W 7 11 29.86 1011 30 48 N/A
5:20 am 05:20 Partly Cloudy 36 2 32 0 87 87 W 7 11 29.86 1011 30 48 N/A
5:50 am 05:50 Mostly Cloudy 36 2 32 0 87 87 W 8 13 29.86 1011 30 48 N/A
6:20 am 06:20 Mostly Clear 36 2 32 0 87 87 W 7 11 29.86 1011 30 48 N/A
6:50 am 06:50 Mostly Clear 36 2 32 0 87 87 WSW 8 13 29.86 1011 30 48 N/A
7:20 am 07:20 Mostly Clear 36 2 32 0 87 87 WSW 7 11 29.83 1010 30 48 N/A
7:50 am 07:50 Mostly Clear 37 3 34 1 87 87 WSW 9 15 29.83 1010 30 48 N/A
8:20 am 08:20 Mostly Sunny 37 3 34 1 87 87 WSW 9 15 29.83 1010 30 48 N/A
8:50 am 08:50 Mostly Cloudy with Light Rain 37 3 36 2 93 93 WSW 10 17 29.80 1009 30 48 N/A
9:20 am 09:20 Mostly Cloudy 37 3 34 1 87 87 WSW 10 17 29.80 1009 30 48 N/A
9:50 am 09:50 Mostly Cloudy with Light Rain 39 4 36 2 87 87 WSW 9 15 29.77 1008 30 48 N/A
10:20 am 10:20 Mostly Cloudy 39 4 36 2 87 87 WSW 10 17 29.74 1007 30 48 N/A
10:50 am 10:50 Mostly Cloudy with Light Rain 39 4 36 2 87 87 WSW 12 19 29.71 1006 30 48 N/A
11:20 am 11:20 Mostly Cloudy with Light Rain 39 4 36 2 87 87 SW 9 15 29.68 1005 30 48 N/A
11:50 am 11:50 Mostly Cloudy with Drizzle 39 4 36 2 87 87 SW 9 15 29.65 1004 4 7 N/A
12:20 pm 12:20 Mostly Cloudy with Light Rain 39 4 36 2 87 87 SW 9 15 29.59 1002 30 48 N/A
12:50 pm 12:50 Mostly Cloudy with Light Rain 39 4 37 3 93 93 VRB 9 15 29.56 1001 4 6 N/A
1:20 pm 13:20 Cloudy with Light Rain 39 4 37 3 93 93 SW 12 19 29.53 1000 4 7 N/A
1:50 pm 13:50 Cloudy with Light Rain 41 5 39 4 93 93 WSW 13 20 29.50 999 3 5 N/A
2:20 pm 14:20 Mostly Cloudy with Light Rain 41 5 41 5 100 100 WSW 14 22 29.50 999 30 48 N/A
2:50 pm 14:50 Mostly Cloudy with Light Rain 43 6 41 5 93 93 WSW 14 22 29.47 998 30 48 N/A
3:20 pm 15:20 Mostly Cloudy with Light Rain 45 7 43 6 93 93 W 14 22 29.47 998 30 48 N/A
3:50 pm 15:50 Mostly Cloudy with Light Rain 45 7 43 6 93 93 W 15 24 29.44 997 30 48 N/A
4:20 pm 16:20 Mostly Cloudy with Rain 45 7 41 5 87 87 W 18 30 29.44 997 3 4 N/A
4:50 pm 16:50 Mostly Cloudy with Light Rain 43 6 41 5 93 93 WNW 14 22 29.44 997 30 48 N/A
5:20 pm 17:20 Mostly Cloudy 46 8 39 4 76 76 WNW 18 30 29.44 997 30 48 N/A
5:50 pm 17:50 Mostly Cloudy 46 8 39 4 76 76 WNW 17 28 29.44 997 30 48 N/A
6:20 pm 18:20 Mostly Cloudy 46 8 39 4 76 76 W 20 31 29.44 997 30 48 N/A
6:50 pm 18:50 Mostly Cloudy with Light Rain 45 7 39 4 81 81 W 21 33 29.44 997 30 48 N/A
7:20 pm 19:20 Cloudy 45 7 39 4 81 81 WNW 22 35 29.44 997 30 48 N/A
7:50 pm 19:50 Mostly Cloudy 45 7 39 4 81 81 WNW 21 33 29.44 997 30 48 N/A
8:20 pm 20:20 Mostly Cloudy 45 7 37 3 76 76 WNW 23 37 29.47 998 30 48 N/A
8:50 pm 20:50 Mostly Cloudy 43 6 37 3 81 81 WNW 20 31 29.47 998 30 48 N/A
9:20 pm 21:20 Mostly Cloudy 45 7 37 3 76 76 W 22 35 29.47 998 30 48 N/A
9:50 pm 21:50 Mostly Cloudy 45 7 37 3 76 76 WNW 20 31 29.47 998 30 48 N/A
10:20 pm 22:20 Mostly Cloudy 45 7 37 3 76 76 W 18 30 29.50 999 30 48 N/A
11:20 pm 23:20 Mostly Cloudy 43 6 37 3 81 81 W 17 28 29.50 999 30 48 N/A
11:50 pm 23:50 Mostly Cloudy 43 6 36 2 76 76 W 18 30 29.53 1000 30 48 N/A

Powered by AerisWeather